Regional Weather Roundup
Issued by NWS

Home | Current Version | Previous Version | Text Only | Print | Product List | Glossary Off
Versions: 1 2 3 4 5 6 7 8 9 10 11 12 13 14 15 16 17 18 19 20 21 22 23 24 25 26 27 28 29 30 31 32 33 34 35 36 37 38 39 40 41 42 43 44 45 46 47 48 49

000
ASUS43 KDMX 020907
RWRIA

WEATHER ROUNDUP FOR IOWA
NATIONAL WEATHER SERVICE DES MOINES IA
400 AM CDT WED SEP 02 2015

NOTE: "FAIR" INDICATES FEW OR NO CLOUDS BELOW 12,000 FEET WITH NO
SIGNIFICANT WEATHER AND/OR OBSTRUCTIONS TO VISIBILITY.

* - THESE STATIONS ARE NOT NWS STATIONS...THUS NOT UNDER NWS
QUALITY CONTROL.  THEY ALSO DO NOT REPORT WEATHER SUCH
AS PRECIPITATION OR FOG.

IAZ001>003-012>014-020>022-031>034-043>046-021000-
   NORTHWEST IOWA

CITY           SKY/WX    TMP DP  RH WIND       PRES   REMARKS
CARROLL *      CLOUDY    73  68  83 S14G21    29.92S
CHEROKEE *     CLEAR     72  68  88 S10       29.88S
DENISON *      CLEAR     73  68  83 S13G21    29.89S
LE MARS *      CLEAR     72  68  88 S9        29.86S
ORANGE CITY *  CLEAR     72  66  83 S8        29.87S
SHELDON *      CLEAR     68  66  94 S6        29.86S
SIOUX CITY     CLEAR     71  65  81 SE10      29.86R
SPENCER        CLEAR     71  66  84 S7        29.89S
STORM LAKE *   CLEAR     72  68  88 S13       29.91S
$$

IAZ055>058-069>071-079>083-090>094-021000-
   SOUTHWEST IOWA

CITY           SKY/WX    TMP DP  RH WIND       PRES   REMARKS
ATLANTIC *     CLOUDY    73  68  83 S14G20    29.94S
AUDUBON *      CLOUDY    73  68  83 S14G24    29.95S
CLARINDA *     CLOUDY    72  68  88 S6        29.98S
COUNCIL BLFS *   N/A     72  68  88 SE12      29.92S
CRESTON *      CLOUDY    70  68  94 SW10      30.03S FOG
LAMONI         CLOUDY    72  67  84 SW6       30.01S
RED OAK *      CLOUDY    72  70  94 SE8       29.94F
SHENANDOAH *   CLOUDY    75  70  83 SE15G28   29.93S
$$

IAZ047>049-059>061-072>074-084-021000-
   CENTRAL IOWA

CITY           SKY/WX    TMP DP  RH WIND       PRES   REMARKS
AMES           TSTM      71  68  90 S7        29.99R
ANKENY *       CLOUDY    73  70  88 SW13G18   29.97R
CHARITON *     CLOUDY    72  66  83 SW5       30.00S
DES MOINES     TSTM      74  68  81 SW14      29.98R
GRINNELL*      CLOUDY    70  66  88 S6        29.99F
KNOXVILLE *    CLOUDY    72  66  83 S7        29.97F
MARSHALLTOWN   CLOUDY    71  67  87 S5        29.97S
PELLA *        CLOUDY    70  70 100 CALM      30.00S
PERRY *        LGT RAIN  72  68  88 S12       29.97R
$$

IAZ004>006-015-016-023>025-035-036-021000-
   NORTH CENTRAL IOWA

CITY           SKY/WX    TMP DP  RH WIND       PRES   REMARKS
ALGONA *       CLOUDY    73  68  83 S15       29.93S
CLARION *      CLOUDY    70  68  94 S13G22    29.95F FOG
ESTHERVILLE    CLEAR     70  68  93 S10       29.90S
FORT DODGE *   CLOUDY    72  66  83 S9        29.96R
MASON CITY     LGT RAIN  70  66  87 S10       29.97S
FOREST CITY *  MOCLDY    70  68  94 S9        29.95S
IOWA FALLS *   LGT RAIN  73  68  83 SW7       29.99S
$$

IAZ007>011-017>019-026>030-037>042-050>054-066-021000-
   NORTHEAST IOWA

CITY           SKY/WX    TMP DP  RH WIND       PRES   REMARKS
CEDAR RAPIDS   CLEAR     70  69  97 S5        30.00R
CHARLES CITY * PTCLDY    72  72 100 S5        29.98F
CLINTON *      CLEAR     70  66  88 S7        30.03S
DECORAH *      MOCLDY    72  68  88 VRB7      29.98S
DUBUQUE        CLEAR     67  66  97 SW6       30.02R FOG
MONTICELLO *   CLEAR     70  68  94 CALM      30.00S
OELWEIN *        N/A     68  68 100 S5        30.01R
WATERLOO       MOCLDY    72  68  87 S6        29.97R
$$

IAZ064-065-067-068-078-021000-
   EAST CENTRAL IOWA

CITY           SKY/WX    TMP DP  RH WIND       PRES   REMARKS
DAVENPORT      CLEAR     71  68  90 S5        30.02S
IOWA CITY      CLEAR     68  67  96 CALM      30.01S FOG
MT. PLEASANT * CLEAR     72  66  83 S5        30.02S
MUSCATINE *    CLEAR     70  66  88 CALM      30.02R
QUAD CITIES    CLEAR     72  67  84 CALM      30.02R
$$

IAZ062-063-075>077-085>089-095>099-021000-
   SOUTHEAST IOWA

CITY           SKY/WX    TMP DP  RH WIND       PRES   REMARKS
BURLINGTON     CLEAR     70  68  93 SW6       30.02S
FAIRFIELD *    CLEAR     70  66  88 S5        30.01S
FORT MADISON * CLEAR     73  70  88 S7        30.03S
KEOKUK *       CLEAR     73  68  83 SW8       30.02R
OSKALOOSA *      N/A     68  66  94 S5        30.00S FOG
CENTERVILLE *  CLEAR     68  66  94 S3        30.03R
OTTUMWA        MOCLDY    71  69  93 S7        29.98S
WASHINGTON *     N/A    N/A N/A N/A MISG        N/A
$$

ABBREVIATIONS USED IN REMARKS
   TC - TEMPERATURES IN CELSIUS
  WCI - WIND CHILL INDEX
   HX - HEAT INDEX
  VSB - VISIBILITY
$$



USA.gov is the U.S. government's official web portal to all federal, state and local government web resources and services.